Location: Certers
(42.4746°N, 1.5061°E)
Time: 21:38:03
(UTC+00:00)

Cosmos 1892 Rocket - Visible Passes

Search period start: 18 November 2025 00:00
Search period end: 28 November 2025 00:00
Orbit: 599 x 626 km, 82.5° (Epoch: 18 November)

Date Brightness Start Highest point End Pass type
(mag) Time Alt. Az. Time Alt. Az. Time Alt. Az.
19 Nov 5.7 18:46:38 10° N 18:47:35 16° N 18:47:35 16° N visible
20 Nov 5.3 17:25:52 10° NE 17:27:16 14° NE 17:27:16 14° NE visible
20 Nov 5.1 19:02:08 10° NNW 19:04:26 28° NNW 19:04:26 28° NNW visible
21 Nov 4.5 17:40:22 10° NNE 17:44:00 25° ENE 17:47:39 10° SE visible
21 Nov 5.4 19:17:54 10° NNW 19:21:43 29° W 19:25:31 10° SSW visible
22 Nov 6.6 06:12:57 10° ESE 06:15:14 14° E 06:17:34 10° NE visible
22 Nov 3.9 17:55:21 10° N 17:59:34 42° ENE 18:03:46 10° SSE visible
22 Nov 6.3 19:34:05 10° NW 19:36:56 17° W 19:39:47 10° SW visible
23 Nov 3.4 18:10:36 10° N 18:15:02 76° E 18:19:27 10° SSE visible
24 Nov 4.1 18:26:03 10° NNW 18:30:25 60° W 18:34:46 10° S visible
25 Nov 4.7 17:04:28 10° NNE 17:07:56 22° ENE 17:11:23 10° ESE visible
25 Nov 5.3 18:41:45 10° NNW 18:45:44 33° W 18:49:41 10° SSW visible
26 Nov 6.7 05:37:25 10° ESE 05:39:16 13° E 05:41:06 10° ENE visible
26 Nov 4.1 17:19:22 10° N 17:23:30 37° ENE 17:27:37 10° SE visible
26 Nov 6.2 18:57:47 10° NW 19:00:57 19° W 19:04:06 10° SW visible
27 Nov 6.2 05:51:07 10° SE 05:54:25 22° E 05:57:45 10° NE visible
27 Nov 3.5 17:34:33 10° N 17:39:00 66° E 17:43:23 10° SSE visible
27 Nov 6.9 19:14:52 10° WNW 19:16:05 11° W 19:17:18 10° W visible
